STARLINK-1039, 44744

Orbit data source: Space-Track

STARLINK-1039, 44744 is a payload satellite owned by SpaceX/Seattle (US) in LEO that was launched on Mon, 11 Nov 2019 UTC via an FALCON 9 launch vehicle from the Air Force Eastern Test Range (AFETR). Payload-class satellites include a variety of spacecraft equipped with specific instruments for various scientific and technological missions. These include communications satellites like Starlink; space stations such as the ISS; scientific satellites like the Hubble; Earth observation satellites from companies like Planet Labs, Umbra, and HawkEye 360; GPS; miniature CubeSats for education and research; and military/defense satellites.

Loading next visibility...
Identifier
44744, 2019-074AH
Orbit
LEO
Country
Flag of USUS
Related business
Manufacturer
SpaceX/Seattle
Mission
Partially operational Commercial Communications
Bus & Motor
STARLINK, Unknown motor
Mass
260 kg wet, ~248 kg dry
Launch date (UTC)
2019-11-11 (6 years ago)
Launch vehicle
FALCON 9
Launch site
Air Force Eastern Test Range (AFETR)
Object type
Payload
Rocket body
Debris
Shape & HBR
Box + 1 Pan, 10.1 m
Radar Cross Section
13.562 m², Large (>1 m²)

Expand to show TLE details & history
Last TLE update: 15 hours ago

TLE from 15 hours ago
0 STARLINK-1039
1 44744U 19074AH  26126.77810558  .00038594  00000-0  14655-2 0  9994
2 44744  53.0601 307.1249 0000270 302.6049  57.4922 15.26479338357214
Epoch: 2026-05-06T18:40Z
TLE epoch observation values (Epoch: 2026-05-06T18:40:28.322Z)
Latitude
-0.00006°
Longitude
162.37313°
Altitude
487.135 km
Speed
7.623 km/s
True Right ascension
20h 28m 29s
True Declination
0° 00' 00"
Sunlit
Object was in daylight at epoch
Visualization orbit readout
Latitude
Unknown
Longitude
Unknown
Altitude
Unknown
Speed
Unknown
Apparent Right ascension
Unknown
Apparent Declination
Unknown
Sunlit
N/A
Visualization observer readout
Local Sidereal Time
17:53:40
Azimuth
Unknown
Elevation
Unknown
Doppler factor
Unknown
Orbital elements
Apogee altitude
486.804 km
Perigee altitude
486.434 km
Semi-major axis
6,864.756 km
Eccentricity
0.00003
Inclination
53.0601°
RAAN
307.1249°
Arg. of periapsis
302.6049°
True anomaly
57.49481°
Mean anomaly
57.4922°
Eccentric anomaly
57.4935°
Mean motion
3.81597 °/min
Orbital period
94.34 mins
BSTAR
0.0014655
Loading maneuver chart data...
Computing Atmospheric mass density...
Loading historical data...
Loading historical data...
Loading historical data...
Loading historical data...
Loading historical data...
Loading historical data...
Loading historical data...

Documentation

Showing up to 5 results
|